Fairbanks Eiels, AK

7:31 AM AKDT on September 19, 2017 (GMT -0800)
Eielson Air Force Base

Weather History for PAEI - July, 2013

Change the Weather History Date:

Sunday, July 14, 2013

  Actual Average Record
Temperature  
Mean Temperature 68 °F -  
Max Temperature 85 °F 71 °F 89 °F (1993)
Min Temperature 51 °F 51 °F 41 °F (1959)
Cooling Degree Days 2    
Growing Degree Days 18 (Base 50)    
Moisture  
Dew Point 48 °F    
Average Humidity 46    
Maximum Humidity 77    
Minimum Humidity 26    
Precipitation  
Precipitation 0.00 in - - ()
Sea Level Pressure  
Sea Level Pressure 30.08 in    
Wind  
Wind Speed 4 mph (WSW)    
Max Wind Speed 10 mph    
Max Gust Speed -    
Visibility 10 miles    
Events Rain    
Averages and records for this station are not official NWS values.
T = Trace of Precipitation, MM = Missing Value Source: NWS Daily Summary

Daily Weather History Graph

Daily Weather History Graph

Search for Another Location

Airport or City:

Trip Planner

Search our weather history database for the weather conditions in past years. The results will help you decide how hot, cold, wet, or windy it might be!

Date:

Astronomy

Jul. 14, 2013 Rise Set
Actual Time 3:50 AM AKDT 11:55 PM AKDT
Civil Twilight 2:26 AM AKDT 1:21 AM AKDT
Nautical Twilight Sun does not set Sun does not set
Astronomical Twilight Sun does not set Sun does not set
Moon 1:29 PM AKDT (7/14) 11:53 PM AKDT (7/14)
Length of Visible Light 22h 55m
Length of Day
20h 04m
Waxing Crescent, 36% of the Moon is Illuminated
Jul 14
Waxing Crescent
Jul 15
First Quarter
Jul 22
Full
Jul 29
Last Quarter
Aug 6
New

Hourly Weather History & Observations

Time (AKDT) Temp. Dew Point Humidity Pressure Visibility Wind Dir Wind Speed Gust Speed Precip Events Conditions
12:55 AM 62.1 °F 45.0 °F 53% 30.01 in 10.0 mi Variable 4.6 mph - N/A   Clear
1:55 AM 58.8 °F 44.1 °F 58% 30.03 in 10.0 mi Variable 4.6 mph - N/A   Clear
2:55 AM 57.0 °F 44.4 °F 63% 30.04 in 10.0 mi Calm Calm - N/A   Clear
3:55 AM 52.0 °F 44.1 °F 74% 30.05 in 10.0 mi Calm Calm - N/A   Clear
4:55 AM 51.6 °F 43.9 °F 75% 30.07 in 10.0 mi Calm Calm - N/A   Clear
5:55 AM 51.8 °F 44.8 °F 77% 30.08 in 10.0 mi Variable 3.5 mph - N/A   Clear
6:55 AM 57.0 °F 47.1 °F 69% 30.09 in 10.0 mi Variable 3.5 mph - N/A   Clear
7:55 AM 64.0 °F 48.7 °F 57% 30.10 in 10.0 mi Calm Calm - N/A   Clear
8:55 AM 68.9 °F 48.7 °F 49% 30.11 in 10.0 mi Variable 4.6 mph - N/A   Clear
9:55 AM 74.8 °F 49.1 °F 40% 30.12 in 10.0 mi Variable 5.8 mph - N/A   Clear
10:55 AM 76.1 °F 50.9 °F 41% 30.12 in 10.0 mi WSW 8.1 mph - N/A   Clear
11:55 AM 79.5 °F 52.3 °F 39% 30.11 in 10.0 mi Calm Calm - N/A   Clear
12:55 PM 80.8 °F 52.7 °F 38% 30.11 in 10.0 mi Variable 5.8 mph - N/A   Clear
1:55 PM 82.9 °F 51.6 °F 34% 30.09 in 10.0 mi Variable 3.5 mph - N/A   Clear
2:55 PM 84.0 °F 46.0 °F 26% 30.09 in 10.0 mi SW 10.4 mph - N/A   Clear
3:55 PM 84.4 °F 48.0 °F 28% 30.08 in 10.0 mi WSW 8.1 mph - N/A   Clear
4:55 PM 84.7 °F 48.9 °F 29% 30.07 in 10.0 mi West 9.2 mph - N/A   Clear
5:55 PM 84.0 °F 48.4 °F 29% 30.06 in 10.0 mi Variable 6.9 mph - N/A   Scattered Clouds
6:55 PM 84.4 °F 46.4 °F 26% 30.06 in 10.0 mi WNW 8.1 mph - N/A   Partly Cloudy
7:55 PM 84.2 °F 46.9 °F 27% 30.06 in 10.0 mi Variable 6.9 mph - N/A   Clear
8:55 PM 81.9 °F 49.8 °F 33% 30.06 in 10.0 mi SSW 8.1 mph - N/A   Clear
9:55 PM 79.7 °F 51.8 °F 38% 30.06 in 10.0 mi Variable 3.5 mph - N/A   Clear
10:55 PM 76.3 °F 51.3 °F 41% 30.07 in 10.0 mi Variable 3.5 mph - N/A   Clear
11:55 PM 67.6 °F 54.0 °F 61% 30.09 in 10.0 mi Calm Calm - 0.00 in Rain Light Rain